This is the latest recevied weather packets stored in our database for station/object KK4WXG. If no packets are shown the sender has not sent any weather packets the latest 10 day(s).
| Time | Temp. | Humidity | Pressure | Rain* | Wind** | Luminosity | Snow |
|---|---|---|---|---|---|---|---|
| 1777989142 | 22.78° C | 50% | 1011.1 hPa | 0 mm | - | 657 W/m² | - |
| 1777988838 | 22.78° C | 49% | 1011.2 hPa | 0 mm | - | 640 W/m² | - |
| 1777988536 | 22.22° C | 49% | 1011.3 hPa | 0 mm | - | 622 W/m² | - |
| 1777988232 | 21.67° C | 52% | 1011.2 hPa | 0 mm | - | 598 W/m² | - |
| 1777987929 | 21.67° C | 53% | 1011.2 hPa | 0 mm | - | 584 W/m² | - |
| 1777987624 | 21.67° C | 55% | 1011.2 hPa | 0 mm | - | 564 W/m² | - |
| 1777987322 | 21.11° C | 55% | 1011.4 hPa | 0 mm | - | 546 W/m² | - |
| 1777987019 | 20.56° C | 56% | 1011.3 hPa | 0 mm | - | 527 W/m² | - |
| 1777986717 | 20° C | 57% | 1011.4 hPa | 0 mm | - | 511 W/m² | - |
| 1777986415 | 20.56° C | 56% | 1011.4 hPa | 0 mm | - | 491 W/m² | - |
| 1777986113 | 20° C | 57% | 1011.4 hPa | 0 mm | - | 473 W/m² | - |
| 1777985809 | 19.44° C | 57% | 1011.4 hPa | 0 mm | - | 448 W/m² | - |
| 1777985506 | 19.44° C | 58% | 1011.6 hPa | 0 mm | - | 429 W/m² | - |
| 1777985203 | 19.44° C | 59% | 1011.4 hPa | 0 mm | - | 410 W/m² | - |
| 1777984899 | 18.89° C | 61% | 1011.7 hPa | 0 mm | - | 391 W/m² | - |
| 1777984595 | 18.89° C | 63% | 1011.8 hPa | 0 mm | - | 372 W/m² | - |
| 1777984292 | 18.33° C | 63% | 1011.8 hPa | 0 mm | - | 356 W/m² | - |
| 1777983989 | 17.78° C | 64% | 1011.9 hPa | 0 mm | - | 335 W/m² | - |
| 1777983686 | 17.78° C | 63% | 1011.7 hPa | 0 mm | - | 316 W/m² | - |
| 1777983383 | 17.22° C | 65% | 1011.8 hPa | 0 mm | - | 296 W/m² | - |
| 1777983079 | 17.22° C | 66% | 1011.7 hPa | 0 mm | - | 275 W/m² | - |
| 1777982775 | 16.67° C | 67% | 1011.7 hPa | 0 mm | - | 253 W/m² | - |
| 1777982471 | 16.67° C | 68% | 1011.8 hPa | 0 mm | - | 233 W/m² | - |
| 1777982166 | 16.11° C | 69% | 1011.6 hPa | 0 mm | - | 212 W/m² | - |
| 1777981864 | 16.11° C | 68% | 1011.5 hPa | 0 mm | - | 193 W/m² | - |
* Rain latest hour (hover to see other rain measurements)
** Current wind speed in m/s (hover to see current wind gust speed)